• en France
  • Liste des pays
  • À 7 jours
  • Température de l'eau
  • Carte satellitaire
  • Carte météo
  • Widgets météo
  • user-avatar
    Se connecter

    Météo par heure à Achtarak

    Ce jour, 25 Septembre, Mardi

    Heure Température Précipitation Vent Pression Humidité
    00:00 +16°C° 0 mm 1 m/s 660 mmHg 69%
    01:00 +16°C° 0 mm 1 m/s 660 mmHg 69%
    02:00 +16°C° 0 mm 1 m/s 659 mmHg 69%
    03:00 +16°C° 0 mm 1 m/s 659 mmHg 71%
    04:00 +15°C° 0 mm 1 m/s 659 mmHg 70%
    05:00 +15°C° 0 mm 1 m/s 659 mmHg 69%
    06:00 +15°C° 0 mm 1 m/s 659 mmHg 68%
    07:00 +18°C° 0 mm 1 m/s 659 mmHg 59%
    08:00 +20°C° 0 mm 1 m/s 660 mmHg 49%
    09:00 +23°C° 0 mm 2 m/s 660 mmHg 40%
    10:00 +24°C° 0 mm 2 m/s 660 mmHg 37%
    11:00 +25°C° 0 mm 2 m/s 660 mmHg 34%
    12:00 +26°C° 0 mm 2 m/s 660 mmHg 32%
    13:00 +27°C° 0 mm 2 m/s 660 mmHg 31%
    14:00 +27°C° 0 mm 2 m/s 660 mmHg 29%
    15:00 +27°C° 0 mm 2 m/s 659 mmHg 28%
    16:00 +25°C° 0 mm 1 m/s 659 mmHg 33%
    17:00 +23°C° 0 mm 1 m/s 658 mmHg 38%
    18:00 +21°C° 0 mm 1 m/s 658 mmHg 43%
    19:00 +21°C° 0 mm 1 m/s 658 mmHg 48%
    20:00 +20°C° 0 mm 1 m/s 658 mmHg 53%
    21:00 +18°C° 0 mm 2 m/s 658 mmHg 57%
    22:00 +18°C° 0.1 mm 2 m/s 658 mmHg 61%
    23:00 +18°C° 0.1 mm 2 m/s 658 mmHg 66%

    Demain, 26 Septembre, Mercredi

    Heure Température Précipitation Vent Pression Humidité
    00:00 +17°C° 0.1 mm 2 m/s 658 mmHg 70%
    01:00 +17°C° 0.3 mm 2 m/s 658 mmHg 72%
    02:00 +16°C° 0.3 mm 2 m/s 658 mmHg 75%
    03:00 +16°C° 0.3 mm 2 m/s 658 mmHg 77%
    04:00 +15°C° 0.4 mm 2 m/s 658 mmHg 78%
    05:00 +15°C° 0.4 mm 2 m/s 658 mmHg 78%
    06:00 +14°C° 0.4 mm 2 m/s 658 mmHg 79%
    07:00 +17°C° 0.1 mm 2 m/s 658 mmHg 70%
    08:00 +19°C° 0.1 mm 2 m/s 659 mmHg 60%
    09:00 +21°C° 0.1 mm 2 m/s 660 mmHg 51%
    10:00 +23°C° 0.2 mm 2 m/s 660 mmHg 47%
    11:00 +24°C° 0.2 mm 2 m/s 660 mmHg 43%
    12:00 +25°C° 0.2 mm 2 m/s 660 mmHg 40%
    13:00 +25°C° 0.3 mm 2 m/s 660 mmHg 40%
    14:00 +25°C° 0.3 mm 2 m/s 659 mmHg 39%
    15:00 +25°C° 0.3 mm 2 m/s 659 mmHg 39%
    16:00 +24°C° 0.3 mm 2 m/s 659 mmHg 46%
    17:00 +21°C° 0.3 mm 2 m/s 659 mmHg 52%
    18:00 +19°C° 0.3 mm 2 m/s 659 mmHg 58%
    19:00 +19°C° 0.1 mm 2 m/s 659 mmHg 62%
    20:00 +18°C° 0.1 mm 3 m/s 659 mmHg 67%
    21:00 +17°C° 0.1 mm 3 m/s 660 mmHg 71%
    22:00 +16°C° 0.2 mm 3 m/s 660 mmHg 73%
    23:00 +16°C° 0.2 mm 2 m/s 660 mmHg 75%

    Après-demain, 27 Septembre, Jeudi

    Heure Température Précipitation Vent Pression Humidité
    00:00 +15°C° 0.2 mm 2 m/s 660 mmHg 76%
    01:00 +15°C° 0 mm 2 m/s 660 mmHg 78%
    02:00 +15°C° 0 mm 2 m/s 660 mmHg 79%
    03:00 +14°C° 0 mm 2 m/s 660 mmHg 81%
    04:00 +14°C° 0 mm 2 m/s 660 mmHg 81%
    05:00 +14°C° 0 mm 2 m/s 660 mmHg 82%
    06:00 +14°C° 0 mm 2 m/s 660 mmHg 83%
    07:00 +15°C° 0 mm 2 m/s 661 mmHg 75%
    08:00 +17°C° 0 mm 2 m/s 662 mmHg 67%
    09:00 +20°C° 0 mm 1 m/s 662 mmHg 59%
    10:00 +21°C° 0 mm 1 m/s 662 mmHg 55%
    11:00 +21°C° 0 mm 2 m/s 662 mmHg 50%
    12:00 +23°C° 0 mm 2 m/s 662 mmHg 46%
    13:00 +23°C° 0 mm 2 m/s 662 mmHg 45%
    14:00 +23°C° 0 mm 1 m/s 662 mmHg 44%
    15:00 +24°C° 0 mm 1 m/s 662 mmHg 43%
    16:00 +21°C° 0 mm 2 m/s 662 mmHg 49%
    17:00 +20°C° 0 mm 2 m/s 662 mmHg 55%
    18:00 +18°C° 0 mm 2 m/s 661 mmHg 60%
    19:00 +18°C° 0 mm 2 m/s 662 mmHg 64%
    20:00 +17°C° 0 mm 2 m/s 662 mmHg 68%
    21:00 +16°C° 0 mm 2 m/s 662 mmHg 73%
    22:00 +16°C° 0 mm 2 m/s 662 mmHg 74%
    23:00 +15°C° 0 mm 2 m/s 662 mmHg 76%

    28 Septembre, Vendredi

    Heure Température Précipitation Vent Pression Humidité
    00:00 +15°C° 0 mm 2 m/s 662 mmHg 78%
    01:00 +15°C° 0 mm 2 m/s 662 mmHg 79%
    02:00 +14°C° 0 mm 2 m/s 662 mmHg 80%
    03:00 +14°C° 0 mm 2 m/s 662 mmHg 80%
    04:00 +14°C° 0 mm 1 m/s 662 mmHg 81%
    05:00 +13°C° 0 mm 1 m/s 661 mmHg 82%
    06:00 +13°C° 0 mm 1 m/s 661 mmHg 82%
    07:00 +15°C° 0 mm 1 m/s 662 mmHg 73%
    08:00 +18°C° 0 mm 1 m/s 662 mmHg 64%
    09:00 +20°C° 0 mm 1 m/s 663 mmHg 55%
    10:00 +21°C° 0 mm 1 m/s 663 mmHg 50%
    11:00 +23°C° 0 mm 2 m/s 663 mmHg 46%
    12:00 +24°C° 0 mm 2 m/s 663 mmHg 41%
    13:00 +24°C° 0 mm 2 m/s 662 mmHg 39%
    14:00 +25°C° 0 mm 2 m/s 662 mmHg 38%
    15:00 +25°C° 0 mm 2 m/s 662 mmHg 37%
    16:00 +23°C° 0 mm 2 m/s 661 mmHg 43%
    17:00 +20°C° 0 mm 2 m/s 661 mmHg 50%
    18:00 +20°C° 0 mm 1 m/s 660 mmHg 56%
    19:00 +18°C° 0 mm 2 m/s 660 mmHg 61%
    20:00 +18°C° 0 mm 2 m/s 661 mmHg 66%
    21:00 +17°C° 0 mm 2 m/s 661 mmHg 71%
    22:00 +17°C° 0 mm 2 m/s 661 mmHg 73%
    23:00 +16°C° 0 mm 2 m/s 661 mmHg 75%

    29 Septembre, Samedi

    Heure Température Précipitation Vent Pression Humidité
    00:00 +16°C° 0 mm 2 m/s 660 mmHg 77%
    01:00 +16°C° 0 mm 2 m/s 660 mmHg 78%
    02:00 +15°C° 0 mm 2 m/s 660 mmHg 78%
    03:00 +15°C° 0 mm 2 m/s 660 mmHg 79%
    04:00 +15°C° 0 mm 1 m/s 660 mmHg 79%
    05:00 +14°C° 0 mm 1 m/s 659 mmHg 79%
    06:00 +14°C° 0 mm 1 m/s 659 mmHg 80%
    07:00 +16°C° 0 mm 1 m/s 660 mmHg 70%
    08:00 +19°C° 0 mm 1 m/s 660 mmHg 60%
    09:00 +20°C° 0 mm 2 m/s 661 mmHg 49%
    10:00 +23°C° 0 mm 2 m/s 661 mmHg 44%
    11:00 +24°C° 0 mm 2 m/s 660 mmHg 39%
    12:00 +25°C° 0 mm 2 m/s 660 mmHg 34%
    13:00 +26°C° 0 mm 2 m/s 660 mmHg 33%
    14:00 +26°C° 0 mm 2 m/s 659 mmHg 32%
    15:00 +26°C° 0 mm 2 m/s 659 mmHg 30%
    16:00 +24°C° 0 mm 2 m/s 658 mmHg 35%
    17:00 +23°C° 0 mm 1 m/s 658 mmHg 40%
    18:00 +21°C° 0 mm 1 m/s 658 mmHg 46%
    19:00 +20°C° 0 mm 1 m/s 658 mmHg 49%
    20:00 +20°C° 0 mm 1 m/s 658 mmHg 51%
    21:00 +18°C° 0 mm 2 m/s 659 mmHg 54%
    22:00 +18°C° 0 mm 2 m/s 659 mmHg 56%
    23:00 +18°C° 0 mm 1 m/s 658 mmHg 58%

    30 Septembre, Dimanche

    Heure Température Précipitation Vent Pression Humidité
    00:00 +18°C° 0 mm 1 m/s 658 mmHg 60%
    01:00 +16°C° 0 mm 1 m/s 658 mmHg 60%
    02:00 +16°C° 0 mm 1 m/s 658 mmHg 60%
    03:00 +16°C° 0 mm 1 m/s 658 mmHg 60%
    04:00 +15°C° 0 mm 1 m/s 658 mmHg 59%
    05:00 +15°C° 0 mm 1 m/s 658 mmHg 58%
    06:00 +15°C° 0 mm 1 m/s 659 mmHg 57%
    07:00 +18°C° 0 mm 1 m/s 659 mmHg 49%
    08:00 +21°C° 0 mm 1 m/s 660 mmHg 42%
    09:00 +23°C° 0 mm 1 m/s 661 mmHg 35%
    10:00 +24°C° 0 mm 1 m/s 660 mmHg 32%
    11:00 +25°C° 0 mm 2 m/s 660 mmHg 30%
    12:00 +26°C° 0 mm 2 m/s 660 mmHg 27%
    13:00 +26°C° 0 mm 2 m/s 660 mmHg 27%
    14:00 +27°C° 0 mm 2 m/s 660 mmHg 26%
    15:00 +27°C° 0 mm 2 m/s 660 mmHg 25%
    16:00 +25°C° 0 mm 2 m/s 659 mmHg 31%
    17:00 +23°C° 0 mm 1 m/s 659 mmHg 36%
    18:00 +21°C° 0 mm 1 m/s 659 mmHg 41%
    19:00 +20°C° 0.1 mm 1 m/s 659 mmHg 46%
    20:00 +19°C° 0.1 mm 2 m/s 660 mmHg 51%
    21:00 +18°C° 0.1 mm 2 m/s 660 mmHg 56%
    22:00 +18°C° 0 mm 2 m/s 660 mmHg 59%
    23:00 +17°C° 0 mm 2 m/s 660 mmHg 62%
    Voir plus